DECAYED

QASED R/B, 51955 (Decayed)

Orbit data source: Space-Track

QASED R/B, 51955 was space debris in LEO originally from a launch on Tue, 08 Mar 2022 UTC launched from the Sharud Missile Test Site (SMTS). Debris objects in space refer to the collection of defunct objects orbiting the Earth. Examples of debris include non-operational satellites, rocket bodies, and fragments generated from explosions, collisions, or faulty payload assembly.

Not visible in the next 10 days
Identifier
51955, 2022-024B
Orbit
Decayed
Country
Flag of IRIR / IRAN
Related business
Flag of IRIslamic Revolutionary Guard Corps (IRGC) (IR)
Manufacturer
IRGC
Mission
Decayed spacecraft
Bus & Motor
QASED S3, Unknown motor
Mass
~100 kg wet, ~100 kg dry
Launch date (UTC)
2022-03-08 (4 years ago)
Launch vehicle
Unknown
Launch site
Sharud Missile Test Site (SMTS)
Object type
Payload
Rocket body
Debris
Shape & HBR
Cyl, 0.3 m
Radar Cross Section
0.153 m², Large (>1 m²)

Expand to show TLE details & history
Last TLE update: 1 year ago

TLE from 1 year ago
0 QASED R/B
1 51955U 22024B   25114.31161047  .03834833  10894-4  70891-3 0  9997
2 51955  58.2542 118.6364 0003250 307.4572  52.6242 16.31660006175766
Epoch: 2025-04-24T07:28Z
TLE epoch observation values (Epoch: 2025-04-24T07:28:43.144Z)
Latitude
-0.00004°
Longitude
153.87175°
Altitude
188.28 km
Speed
7.795 km/s
True Right ascension
07h 54m 32s
True Declination
0° 00' 00"
Sunlit
Object was in daylight at epoch
Visualization orbit readout
Latitude
Unknown
Longitude
Unknown
Altitude
Unknown
Speed
Unknown
Apparent Right ascension
Unknown
Apparent Declination
Unknown
Sunlit
N/A
Visualization observer readout
Local Sidereal Time
00:31:35
Azimuth
Unknown
Elevation
Unknown
Doppler factor
Unknown
Orbital elements
Apogee altitude
189.652 km
Perigee altitude
185.384 km
Semi-major axis
6,565.655 km
Eccentricity
0.00033
Inclination
58.2542°
RAAN
118.6364°
Arg. of periapsis
307.4572°
True anomaly
52.6538°
Mean anomaly
52.6242°
Eccentric anomaly
52.639°
Mean motion
4.07968 °/min
Orbital period
88.24 mins
BSTAR
0.00070891
Loading maneuver chart data...
Computing Atmospheric mass density...
Loading historical data...
Loading historical data...
Loading historical data...
Loading historical data...
Loading historical data...
Loading historical data...
Loading historical data...
Other satellites on launch #24 in the year 2022 (2022-03-08 UTC)

Documentation

Showing up to 5 results
|